TimeCDT,TemperatureF,Dew PointF,Humidity,Sea Level PressureIn,VisibilityMPH,Wind Direction,Wind SpeedMPH,Gust SpeedMPH,PrecipitationIn,Events,Conditions,WindDirDegrees,DateUTC
12:15 AM,75.6,61.0,60,29.99,10.0,Calm,Calm,-,N/A,,Clear,0,2013-08-20 05:15:00
12:35 AM,75.6,60.8,60,30.00,10.0,Calm,Calm,-,N/A,,Clear,0,2013-08-20 05:35:00
12:55 AM,77.9,61.0,56,30.00,10.0,Calm,Calm,-,N/A,,Clear,0,2013-08-20 05:55:00
1:15 AM,78.1,60.1,54,30.00,10.0,SSE,3.5,-,N/A,,Clear,150,2013-08-20 06:15:00
1:35 AM,78.1,61.2,56,30.00,10.0,SSE,4.6,-,N/A,,Clear,150,2013-08-20 06:35:00
1:55 AM,76.3,60.4,58,30.00,10.0,South,3.5,-,N/A,,Clear,170,2013-08-20 06:55:00
2:15 AM,75.6,61.2,61,30.00,10.0,South,3.5,-,N/A,,Clear,190,2013-08-20 07:15:00
2:35 AM,75.6,62.8,64,30.00,10.0,South,3.5,-,N/A,,Clear,180,2013-08-20 07:35:00
2:55 AM,75.6,64.6,69,30.01,10.0,SSW,3.5,-,N/A,,Clear,200,2013-08-20 07:55:00
3:15 AM,75.6,65.3,70,30.00,10.0,Calm,Calm,-,N/A,,Clear,0,2013-08-20 08:15:00
3:35 AM,75.6,65.5,71,30.00,10.0,SSW,3.5,-,N/A,,Clear,200,2013-08-20 08:35:00
3:55 AM,75.6,65.1,70,30.00,10.0,Calm,Calm,-,N/A,,Clear,0,2013-08-20 08:55:00
4:15 AM,75.6,65.3,70,30.00,10.0,Calm,Calm,-,N/A,,Clear,0,2013-08-20 09:15:00
4:35 AM,75.6,65.3,70,30.00,10.0,Calm,Calm,-,N/A,,Clear,0,2013-08-20 09:35:00
4:55 AM,75.6,66.2,73,30.01,10.0,South,3.5,-,N/A,,Clear,190,2013-08-20 09:55:00
5:15 AM,73.0,64.6,75,30.01,10.0,Calm,Calm,-,N/A,,Clear,0,2013-08-20 10:15:00
5:35 AM,73.0,63.9,73,30.01,10.0,Calm,Calm,-,N/A,,Clear,0,2013-08-20 10:35:00
5:55 AM,73.0,64.6,75,30.01,10.0,Calm,Calm,-,N/A,,Clear,0,2013-08-20 10:55:00
6:15 AM,72.3,64.0,75,30.01,10.0,West,3.5,-,N/A,,Clear,260,2013-08-20 11:15:00
6:35 AM,70.7,62.6,75,30.02,10.0,West,3.5,-,N/A,,Clear,260,2013-08-20 11:35:00
6:55 AM,70.7,61.7,73,30.02,10.0,Calm,Calm,-,N/A,,Clear,0,2013-08-20 11:55:00
7:15 AM,70.7,63.7,78,30.02,-9999.0,Calm,Calm,-,N/A,,Clear,0,2013-08-20 12:15:00
7:35 AM,70.7,63.0,76,30.03,10.0,Calm,Calm,-,N/A,,Clear,0,2013-08-20 12:35:00
7:55 AM,70.7,63.9,79,30.03,-9999.0,Calm,Calm,-,N/A,,Clear,0,2013-08-20 12:55:00
8:15 AM,75.6,63.5,66,30.04,10.0,Calm,Calm,-,N/A,,Clear,0,2013-08-20 13:15:00
8:35 AM,75.6,62.6,64,30.04,10.0,Calm,Calm,-,N/A,,Clear,0,2013-08-20 13:35:00
8:55 AM,77.7,63.3,61,30.04,10.0,Calm,Calm,-,N/A,,Clear,0,2013-08-20 13:55:00
9:15 AM,78.1,62.6,59,30.05,-9999.0,Calm,Calm,-,N/A,,Clear,0,2013-08-20 14:15:00
9:35 AM,80.6,63.1,55,30.06,10.0,Calm,Calm,-,N/A,,Clear,0,2013-08-20 14:35:00
9:55 AM,80.8,61.7,52,30.06,10.0,SSE,3.5,-,N/A,,Clear,160,2013-08-20 14:55:00
10:15 AM,81.9,61.2,49,30.06,10.0,SE,3.5,-,N/A,,Clear,140,2013-08-20 15:15:00
10:35 AM,83.3,59.9,45,30.06,10.0,SE,5.8,-,N/A,,Clear,140,2013-08-20 15:35:00
10:55 AM,84.7,58.8,41,30.06,-9999.0,SSE,5.8,-,N/A,,Clear,150,2013-08-20 15:55:00
11:15 AM,88.2,57.6,35,30.06,-9999.0,SSE,4.6,-,N/A,,Clear,160,2013-08-20 16:15:00
11:35 AM,90.5,58.1,33,30.06,-9999.0,ESE,5.8,-,N/A,,Clear,110,2013-08-20 16:35:00
11:55 AM,90.7,57.0,32,30.06,10.0,SE,5.8,-,N/A,,Clear,130,2013-08-20 16:55:00
12:15 PM,90.7,57.2,32,30.06,10.0,Calm,Calm,-,N/A,,Scattered Clouds,0,2013-08-20 17:15:00
12:35 PM,90.7,55.6,30,30.05,10.0,SSE,3.5,-,N/A,,Scattered Clouds,150,2013-08-20 17:35:00
12:55 PM,90.7,54.3,29,30.04,10.0,ESE,9.2,18.4,N/A,,Scattered Clouds,110,2013-08-20 17:55:00
1:15 PM,90.7,53.8,28,30.04,-9999.0,East,11.5,20.7,N/A,,Scattered Clouds,90,2013-08-20 18:15:00
1:35 PM,92.7,55.2,28,30.04,-9999.0,East,11.5,19.6,N/A,,Scattered Clouds,80,2013-08-20 18:35:00
1:55 PM,92.1,55.2,29,30.04,10.0,ESE,5.8,-,N/A,,Scattered Clouds,110,2013-08-20 18:55:00
2:15 PM,93.0,55.0,28,30.04,10.0,SE,10.4,20.7,N/A,,Scattered Clouds,130,2013-08-20 19:15:00
2:35 PM,90.7,55.8,31,30.03,10.0,ESE,12.7,18.4,N/A,,Clear,110,2013-08-20 19:35:00
2:55 PM,92.7,55.4,28,30.02,10.0,East,5.8,-,N/A,,Scattered Clouds,80,2013-08-20 19:55:00
3:15 PM,91.8,56.7,31,30.02,10.0,ESE,12.7,20.7,N/A,,Scattered Clouds,120,2013-08-20 20:15:00
3:35 PM,91.0,55.6,30,30.02,10.0,SE,9.2,-,N/A,,Scattered Clouds,140,2013-08-20 20:35:00
3:55 PM,91.2,55.8,30,30.01,10.0,East,10.4,17.3,N/A,,Scattered Clouds,90,2013-08-20 20:55:00
4:15 PM,92.7,56.8,30,30.00,10.0,ESE,9.2,21.9,N/A,,Mostly Cloudy,110,2013-08-20 21:15:00
4:35 PM,92.1,54.9,28,29.99,-9999.0,SE,8.1,-,N/A,,Scattered Clouds,140,2013-08-20 21:35:00
4:55 PM,93.2,55.9,28,29.99,10.0,ESE,4.6,20.7,N/A,,Scattered Clouds,110,2013-08-20 21:55:00
5:15 PM,93.6,57.2,29,29.99,10.0,East,6.9,-,N/A,,Scattered Clouds,100,2013-08-20 22:15:00
5:35 PM,93.2,56.3,29,29.98,10.0,SSE,8.1,16.1,N/A,,Scattered Clouds,150,2013-08-20 22:35:00
5:55 PM,93.2,56.8,29,29.97,10.0,East,8.1,-,N/A,,Mostly Cloudy,80,2013-08-20 22:55:00
6:15 PM,92.3,55.8,29,29.97,-9999.0,SE,5.8,-,N/A,,Scattered Clouds,130,2013-08-20 23:15:00
6:35 PM,93.2,55.6,28,29.97,-9999.0,East,8.1,-,N/A,,Clear,90,2013-08-20 23:35:00
6:55 PM,92.3,54.0,27,29.97,10.0,ESE,9.2,-,N/A,,Clear,110,2013-08-20 23:55:00
7:15 PM,90.7,53.8,28,29.97,10.0,ESE,9.2,-,N/A,,Clear,120,2013-08-21 00:15:00
7:35 PM,90.7,54.7,29,29.97,10.0,SE,9.2,-,N/A,,Clear,130,2013-08-21 00:35:00
7:55 PM,90.7,56.1,31,29.97,10.0,ESE,8.1,-,N/A,,Clear,110,2013-08-21 00:55:00
8:15 PM,90.7,57.4,32,29.97,-9999.0,ESE,4.6,-,N/A,,Clear,110,2013-08-21 01:15:00
8:35 PM,88.2,57.2,35,29.98,-9999.0,East,3.5,-,N/A,,Clear,100,2013-08-21 01:35:00
8:55 PM,85.1,56.3,37,29.98,10.0,ESE,3.5,-,N/A,,Clear,110,2013-08-21 01:55:00
9:15 PM,84.4,57.0,39,29.98,4.0,ESE,3.5,-,N/A,,Haze,110,2013-08-21 02:15:00
9:35 PM,83.5,59.5,44,29.99,10.0,SE,8.1,-,N/A,,Clear,140,2013-08-21 02:35:00
9:55 PM,83.3,64.4,53,30.00,10.0,SSE,10.4,-,N/A,,Clear,150,2013-08-21 02:55:00
10:15 PM,83.1,65.3,55,30.01,10.0,SSE,5.8,-,N/A,,Clear,160,2013-08-21 03:15:00
10:35 PM,81.9,65.5,57,30.02,10.0,SSE,9.2,-,N/A,,Clear,160,2013-08-21 03:35:00
10:55 PM,81.1,65.7,59,30.02,10.0,SSE,5.8,-,N/A,,Clear,160,2013-08-21 03:55:00
11:15 PM,80.6,65.7,60,30.03,10.0,SSE,5.8,-,N/A,,Clear,150,2013-08-21 04:15:00
11:35 PM,80.6,66.6,62,30.03,10.0,SE,4.6,-,N/A,,Clear,140,2013-08-21 04:35:00
11:55 PM,80.6,68.0,65,30.04,10.0,SSE,4.6,-,N/A,,Clear,160,2013-08-21 04:55:00